| time (UTC) | temp F | wind direction | speed MPH | gust MPH | rain 1hr in | rain 24hr in | rain mn in | humidity % | barometer mb |
| 20260509214739 | 89 | 62 | 0.0 | 1.0 | 0.00 | 2.00 | 1.98 | 65 | 1009.2 |
| 20260509214545 | 89 | 0 | 0.0 | 1.0 | 0.00 | 2.00 | 1.98 | 65 | 1009.4 |
| 20260509214238 | 90 | 191 | 0.0 | 1.0 | 0.00 | 2.00 | 1.98 | 65 | 1009.0 |
| 20260509214001 | 90 | 288 | 0.0 | 0.0 | 0.00 | 2.00 | 1.98 | 64 | 1009.0 |
| 20260509213502 | 90 | 288 | 0.0 | 2.0 | 0.00 | 2.00 | 1.98 | 64 | 1009.0 |
| 20260509213049 | 90 | 0 | 0.0 | 1.0 | 0.00 | 2.00 | 1.98 | 63 | 1009.4 |
| 20260509212739 | 90 | 288 | 0.0 | 2.0 | 0.00 | 2.00 | 1.98 | 63 | 1009.1 |
| 20260509212232 | 91 | 288 | 0.0 | 4.0 | 0.00 | 2.00 | 1.98 | 63 | 1009.1 |
| 20260509211729 | 91 | 197 | 0.0 | 4.0 | 0.00 | 2.00 | 1.98 | 63 | 1009.2 |
| 20260509211552 | 91 | 0 | 0.0 | 4.0 | 0.00 | 2.00 | 1.98 | 61 | 1009.5 |
| 20260509211230 | 92 | 207 | 0.0 | 0.0 | 0.00 | 2.00 | 1.98 | 62 | 1009.2 |
| 20260509210729 | 92 | 207 | 0.0 | 0.0 | 0.00 | 2.00 | 1.98 | 64 | 1009.0 |
| 20260509210230 | 92 | 207 | 0.0 | 0.0 | 0.00 | 2.00 | 1.98 | 63 | 1009.1 |
| 20260509210105 | 91 | 0 | 0.0 | 1.0 | 0.00 | 2.00 | 1.98 | 63 | 1009.4 |
| 20260509205729 | 91 | 207 | 0.0 | 1.0 | 0.00 | 2.00 | 1.98 | 63 | 1009.3 |
| 20260509205228 | 92 | 205 | 0.0 | 1.0 | 0.00 | 2.00 | 1.98 | 61 | 1009.2 |
| 20260509204948 | 93 | 207 | 0.0 | 0.0 | 0.00 | 2.00 | 1.98 | 61 | 1009.3 |
| 20260509204550 | 92 | 0 | 0.0 | 0.0 | 0.00 | 2.00 | 1.98 | 62 | 1009.7 |
| 20260509204231 | 93 | 21 | 0.0 | 0.0 | 0.00 | 2.00 | 1.98 | 60 | 1009.4 |
| 20260509203730 | 93 | 21 | 0.0 | 0.0 | 0.00 | 2.00 | 1.98 | 61 | 1009.4 |
| 20260509203244 | 92 | 21 | 0.0 | 0.0 | 0.00 | 2.00 | 1.98 | 62 | 1009.5 |
| 20260509203059 | 92 | 0 | 0.0 | 1.0 | 0.00 | 2.00 | 1.98 | 62 | 1009.8 |
| 20260509202730 | 92 | 21 | 0.0 | 1.0 | 0.00 | 2.00 | 1.98 | 62 | 1009.5 |
| 20260509202231 | 92 | 325 | 0.0 | 1.0 | 0.00 | 2.00 | 1.98 | 61 | 1009.4 |
| 20260509202015 | 93 | 114 | 0.0 | 0.0 | 0.00 | 2.00 | 1.98 | 59 | 1009.5 |
| 20260509201557 | 93 | 0 | 0.0 | 0.0 | 0.00 | 2.00 | 1.98 | 59 | 1009.8 |
| 20260509201230 | 93 | 99 | 0.0 | 0.0 | 0.00 | 2.00 | 1.98 | 59 | 1009.6 |
| 20260509200730 | 93 | 99 | 0.0 | 1.0 | 0.00 | 2.00 | 1.98 | 62 | 1009.7 |
| 20260509200231 | 93 | 99 | 0.0 | 1.0 | 0.00 | 2.00 | 1.98 | 61 | 1009.7 |
| 20260509200052 | 92 | 0 | 0.0 | 0.0 | 0.00 | 2.00 | 1.98 | 62 | 1010.1 |
| 20260509195729 | 92 | 196 | 0.0 | 0.0 | 0.00 | 2.00 | 1.98 | 63 | 1009.7 |
| 20260509195229 | 92 | 196 | 0.0 | 0.0 | 0.00 | 2.00 | 1.98 | 62 | 1009.8 |
| 20260509194728 | 92 | 134 | 0.0 | 0.0 | 0.00 | 2.00 | 1.98 | 61 | 1009.9 |
| 20260509194547 | 92 | 0 | 0.0 | 1.0 | 0.00 | 2.00 | 1.98 | 60 | 1010.2 |
| 20260509194230 | 92 | 134 | 0.0 | 0.0 | 0.00 | 2.00 | 1.98 | 63 | 1010.0 |
| 20260509193729 | 91 | 72 | 0.0 | 0.0 | 0.00 | 2.00 | 1.98 | 63 | 1010.1 |
| 20260509193229 | 91 | 72 | 0.0 | 0.0 | 0.00 | 2.00 | 1.98 | 64 | 1010.3 |
| 20260509193053 | 91 | 0 | 0.0 | 0.0 | 0.00 | 2.00 | 1.98 | 64 | 1010.6 |
| 20260509192729 | 91 | 72 | 0.0 | 0.0 | 0.00 | 2.00 | 1.98 | 64 | 1010.4 |
| 20260509192229 | 91 | 72 | 0.0 | 0.0 | 0.00 | 2.00 | 1.98 | 65 | 1010.4 |
| 20260509191729 | 91 | 72 | 0.0 | 0.0 | 0.00 | 2.00 | 1.98 | 65 | 1010.4 |
| 20260509191553 | 90 | 0 | 0.0 | 0.0 | 0.00 | 2.00 | 1.98 | 65 | 1010.7 |
| 20260509191228 | 90 | 72 | 0.0 | 0.0 | 0.00 | 2.00 | 1.98 | 66 | 1010.4 |
| 20260509190726 | 90 | 72 | 0.0 | 0.0 | 0.00 | 2.00 | 1.98 | 65 | 1010.3 |
| 20260509190213 | 89 | 72 | 0.0 | 1.0 | 0.00 | 2.00 | 1.98 | 65 | 1010.3 |
| 20260509190054 | 89 | 0 | 0.0 | 1.0 | 0.00 | 2.00 | 1.98 | 67 | 1010.6 |
| 20260509185930 | 89 | 72 | 0.0 | 1.0 | 0.00 | 2.00 | 1.98 | 65 | 1010.3 |
| 20260509185431 | 90 | 263 | 0.0 | 0.0 | 0.00 | 2.00 | 1.98 | 64 | 1010.5 |
| 20260509184702 | 90 | 263 | 0.0 | 0.0 | 0.00 | 2.00 | 1.98 | 66 | 1010.5 |
| 20260509184556 | 89 | 0 | 0.0 | 0.0 | 0.00 | 2.00 | 1.98 | 66 | 1010.8 |
| 20260509184203 | 89 | 263 | 0.0 | 0.0 | 0.00 | 2.00 | 1.98 | 65 | 1010.5 |
| 20260509183702 | 89 | 263 | 0.0 | 0.0 | 0.00 | 2.00 | 1.98 | 67 | 1010.6 |
| 20260509183202 | 88 | 231 | 0.0 | 0.0 | 0.00 | 2.00 | 1.98 | 69 | 1010.7 |
| 20260509183052 | 87 | 0 | 0.0 | 1.0 | 0.00 | 2.00 | 1.98 | 68 | 1011.1 |
| 20260509182921 | 87 | 231 | 0.0 | 0.0 | 0.00 | 2.00 | 1.98 | 68 | 1010.9 |
| 20260509182202 | 87 | 355 | 0.0 | 4.0 | 0.00 | 2.00 | 1.98 | 70 | 1010.9 |
| 20260509181926 | 87 | 355 | 0.0 | 4.0 | 0.00 | 2.00 | 1.98 | 69 | 1011.0 |
| 20260509181553 | 86 | 0 | 0.0 | 4.0 | 0.00 | 2.00 | 1.98 | 69 | 1011.2 |
| 20260509181202 | 87 | 190 | 0.0 | 3.0 | 0.00 | 2.00 | 1.98 | 69 | 1010.9 |
| 20260509180702 | 87 | 257 | 0.0 | 3.0 | 0.00 | 2.00 | 1.98 | 72 | 1010.9 |
| 20260509180203 | 87 | 127 | 0.0 | 3.0 | 0.00 | 2.00 | 1.98 | 69 | 1011.0 |
| 20260509180100 | 86 | 0 | 0.0 | 5.0 | 0.00 | 2.00 | 1.98 | 69 | 1011.2 |
| 20260509175702 | 86 | 295 | 0.0 | 5.0 | 0.00 | 2.00 | 1.98 | 72 | 1011.0 |
| 20260509175203 | 85 | 77 | 0.0 | 5.0 | 0.00 | 2.00 | 1.98 | 72 | 1011.1 |
| 20260509174702 | 85 | 280 | 0.0 | 2.0 | 0.00 | 2.00 | 1.98 | 73 | 1011.2 |
| 20260509174555 | 84 | 0 | 0.0 | 1.0 | 0.00 | 2.00 | 1.98 | 72 | 1011.5 |
| 20260509174200 | 84 | 301 | 0.0 | 3.0 | 0.00 | 2.00 | 1.98 | 73 | 1011.3 |
| 20260509173949 | 84 | 299 | 0.0 | 3.0 | 0.00 | 2.00 | 1.98 | 74 | 1011.4 |
| 20260509173201 | 83 | 293 | 0.0 | 2.0 | 0.00 | 2.00 | 1.98 | 75 | 1011.6 |
| 20260509173057 | 83 | 0 | 0.0 | 3.0 | 0.00 | 2.00 | 1.98 | 74 | 1011.7 |
| 20260509172701 | 83 | 44 | 0.0 | 6.0 | 0.00 | 2.00 | 1.98 | 74 | 1011.4 |
| 20260509172200 | 83 | 33 | 0.0 | 6.0 | 0.00 | 2.00 | 1.98 | 75 | 1011.3 |
| 20260509171700 | 83 | 150 | 0.0 | 5.0 | 0.00 | 2.00 | 1.98 | 75 | 1011.4 |
| 20260509171549 | 83 | 0 | 0.0 | 6.0 | 0.00 | 2.00 | 1.98 | 75 | 1011.6 |
| 20260509171201 | 83 | 203 | 1.0 | 5.0 | 0.00 | 2.00 | 1.98 | 75 | 1011.3 |
| 20260509170703 | 83 | 254 | 0.0 | 5.0 | 0.00 | 2.00 | 1.98 | 77 | 1011.2 |
| 20260509170203 | 83 | 115 | 0.0 | 6.0 | 0.00 | 2.00 | 1.98 | 79 | 1011.2 |
| 20260509170100 | 82 | 0 | 0.0 | 8.0 | 0.00 | 2.00 | 1.98 | 78 | 1011.6 |
| 20260509165702 | 82 | 278 | 2.0 | 7.0 | 0.00 | 2.00 | 1.98 | 79 | 1011.2 |
| 20260509165426 | 82 | 282 | 2.0 | 7.0 | 0.00 | 2.00 | 1.98 | 79 | 1011.3 |
| 20260509164702 | 82 | 230 | 1.0 | 6.0 | 0.00 | 2.00 | 1.98 | 79 | 1011.4 |
| 20260509164549 | 81 | 0 | 2.0 | 11.0 | 0.00 | 2.00 | 1.98 | 79 | 1011.7 |
| 20260509164201 | 81 | 128 | 1.0 | 9.0 | 0.00 | 2.00 | 1.98 | 80 | 1011.6 |
| 20260509163702 | 80 | 94 | 3.0 | 9.0 | 0.00 | 2.00 | 1.98 | 80 | 1011.7 |
| 20260509163202 | 80 | 215 | 0.0 | 7.0 | 0.00 | 2.00 | 1.98 | 86 | 1011.7 |
| 20260509163102 | 79 | 0 | 1.0 | 7.0 | 0.00 | 2.00 | 1.98 | 84 | 1012.0 |
| 20260509162702 | 79 | 122 | 3.0 | 8.0 | 0.00 | 2.00 | 1.98 | 85 | 1011.8 |
| 20260509162648 | 78 | 53 | 2.0 | 8.0 | 0.00 | 2.00 | 1.98 | 88 | 1011.9 |
| 20260509161702 | 77 | 290 | 2.0 | 9.0 | 0.00 | 2.00 | 1.98 | 92 | 1012.0 |
| 20260509161643 | 76 | 108 | 1.0 | 9.0 | 0.00 | 2.00 | 1.98 | 97 | 1012.1 |
| 20260509161555 | 76 | 103 | 2.0 | 9.0 | 0.00 | 2.00 | 1.98 | 93 | 1012.2 |
| 20260509160702 | 74 | 177 | 2.0 | 5.0 | 0.00 | 2.00 | 1.98 | 97 | 1012.2 |
| 20260509160203 | 73 | 37 | 2.0 | 7.0 | 0.00 | 2.00 | 1.98 | 98 | 1012.3 |
| 20260509160057 | 73 | 233 | 1.0 | 7.0 | 0.00 | 2.00 | 1.98 | 97 | 1012.5 |
| 20260509155702 | 73 | 220 | 1.0 | 7.0 | 0.00 | 2.00 | 1.98 | 98 | 1012.3 |
| 20260509155202 | 72 | 65 | 1.0 | 9.0 | 0.00 | 2.00 | 1.98 | 98 | 1012.3 |
| 20260509154702 | 71 | 191 | 2.0 | 9.0 | 0.00 | 2.00 | 1.98 | 97 | 1012.2 |
| 20260509154558 | 71 | 0 | 3.0 | 9.0 | 0.00 | 2.00 | 1.98 | 97 | 1012.4 |
| 20260509154420 | 71 | 123 | 2.0 | 9.0 | 0.01 | 2.00 | 1.98 | 97 | 1012.2 |
| 20260509153920 | 71 | 131 | 1.0 | 6.0 | 0.04 | 2.00 | 1.98 | 97 | 1012.3 |
| 20260509153202 | 70 | 138 | 2.0 | 8.0 | 0.12 | 2.00 | 1.98 | 97 | 1012.6 |
| 20260509153050 | 70 | 203 | 1.0 | 8.0 | 0.16 | 2.00 | 1.98 | 97 | 1012.9 |
| 20260509152702 | 70 | 295 | 2.0 | 8.0 | 0.41 | 2.00 | 1.98 | 97 | 1012.8 |
| 20260509152201 | 70 | 202 | 1.0 | 7.0 | 0.74 | 2.00 | 1.98 | 97 | 1012.9 |
| 20260509151701 | 70 | 154 | 2.0 | 7.0 | 1.08 | 2.00 | 1.98 | 97 | 1012.8 |
| 20260509151553 | 70 | 352 | 1.0 | 7.0 | 1.14 | 2.00 | 1.98 | 97 | 1012.9 |
| 20260509151201 | 70 | 192 | 2.0 | 4.0 | 1.40 | 2.00 | 1.98 | 97 | 1012.8 |
| 20260509150921 | 70 | 342 | 0.0 | 5.0 | 1.84 | 2.00 | 1.98 | 97 | 1012.8 |
| 20260509150203 | 70 | 137 | 1.0 | 6.0 | 1.88 | 2.00 | 1.98 | 97 | 1012.8 |
| 20260509150106 | 69 | 130 | 0.0 | 10.0 | 1.88 | 2.00 | 1.98 | 97 | 1012.8 |
| 20260509145702 | 70 | 24 | 1.0 | 10.0 | 1.88 | 0.12 | 1.98 | 97 | 1012.6 |
| 20260509145202 | 70 | 317 | 4.0 | 11.0 | 1.88 | 0.12 | 1.98 | 97 | 1012.7 |
| 20260509144702 | 69 | 69 | 4.0 | 11.0 | 1.88 | 0.12 | 1.98 | 97 | 1012.6 |
| 20260509144556 | 69 | 94 | 1.0 | 11.0 | 1.88 | 2.00 | 1.98 | 97 | 1012.9 |
| 20260509144426 | 69 | 313 | 1.0 | 8.0 | 1.87 | 0.12 | 1.97 | 97 | 1013.0 |
| 20260509143703 | 69 | 230 | 1.0 | 10.0 | 1.86 | 0.12 | 1.93 | 97 | 1013.3 |
| 20260509143202 | 69 | 215 | 5.0 | 10.0 | 1.78 | 0.12 | 1.82 | 97 | 1013.6 |
| 20260509143053 | 68 | 179 | 3.0 | 12.0 | 1.73 | 1.83 | 1.81 | 96 | 1013.8 |
| 20260509142702 | 68 | 305 | 2.0 | 10.0 | 1.49 | 0.12 | 1.52 | 97 | 1014.0 |
| 20260509142202 | 68 | 184 | 1.0 | 10.0 | 1.16 | 0.12 | 1.16 | 96 | 1014.6 |
| 20260509141702 | 68 | 75 | 2.0 | 9.0 | 0.82 | 0.12 | 0.84 | 96 | 1014.9 |
| 20260509141552 | 68 | 348 | 1.0 | 17.0 | 0.74 | 0.84 | 0.82 | 95 | 1015.0 |
| 20260509141202 | 69 | 250 | 1.0 | 16.0 | 0.50 | 0.12 | 0.50 | 95 | 1014.8 |
| 20260509140925 | 70 | 287 | 8.0 | 16.0 | 0.06 | 0.12 | 0.11 | 95 | 1015.2 |
| 20260509140201 | 71 | 297 | 7.0 | 15.0 | 0.02 | 0.12 | 0.10 | 95 | 1013.8 |
| 20260509140043 | 71 | 250 | 7.0 | 16.0 | 0.02 | 0.12 | 0.10 | 95 | 1014.1 |
| 20260509135920 | 72 | 339 | 1.0 | 9.0 | 0.02 | 0.10 | 0.10 | 97 | 1013.6 |
| 20260509135201 | 72 | 280 | 0.0 | 0.0 | 0.02 | 0.10 | 0.10 | 97 | 1011.6 |
| 20260509134701 | 72 | 315 | 0.0 | 2.0 | 0.02 | 0.10 | 0.10 | 97 | 1011.2 |
| 20260509134548 | 71 | 0 | 0.0 | 5.0 | 0.02 | 0.12 | 0.10 | 96 | 1011.6 |
| 20260509134200 | 71 | 110 | 0.0 | 3.0 | 0.02 | 0.10 | 0.09 | 97 | 1011.2 |
| 20260509133720 | 71 | 152 | 0.0 | 6.0 | 0.00 | 0.10 | 0.08 | 97 | 1011.6 |
| 20260509133202 | 71 | 191 | 0.0 | 6.0 | 0.00 | 0.10 | 0.08 | 97 | 1011.7 |
| 20260509133057 | 71 | 0 | 0.0 | 7.0 | 0.00 | 0.10 | 0.08 | 96 | 1012.1 |
| 20260509132933 | 71 | 285 | 0.0 | 4.0 | 0.00 | 0.10 | 0.08 | 97 | 1012.0 |
| 20260509132215 | 71 | 167 | 0.0 | 4.0 | 0.00 | 0.10 | 0.08 | 97 | 1012.0 |
| 20260509131702 | 71 | 311 | 0.0 | 2.0 | 0.00 | 0.10 | 0.08 | 97 | 1012.1 |
| 20260509131547 | 71 | 0 | 0.0 | 0.0 | 0.00 | 0.10 | 0.08 | 96 | 1012.2 |
| 20260509131200 | 71 | 186 | 0.0 | 4.0 | 0.00 | 0.10 | 0.08 | 97 | 1011.9 |
| 20260509130701 | 71 | 314 | 0.0 | 4.0 | 0.00 | 0.10 | 0.08 | 97 | 1011.9 |
| 20260509130201 | 71 | 171 | 0.0 | 2.0 | 0.00 | 0.10 | 0.08 | 97 | 1012.0 |
| 20260509130053 | 71 | 0 | 0.0 | 3.0 | 0.00 | 0.10 | 0.08 | 96 | 1012.1 |
| 20260509125701 | 71 | 228 | 0.0 | 5.0 | 0.00 | 0.10 | 0.08 | 97 | 1011.8 |
| 20260509125422 | 71 | 205 | 0.0 | 5.0 | 0.00 | 0.10 | 0.08 | 97 | 1011.6 |
| 20260509124700 | 71 | 282 | 0.0 | 8.0 | 0.00 | 0.10 | 0.08 | 97 | 1011.7 |
| 20260509124555 | 71 | 0 | 0.0 | 8.0 | 0.00 | 0.10 | 0.08 | 97 | 1011.9 |
| 20260509124200 | 72 | 350 | 1.0 | 8.0 | 0.00 | 0.10 | 0.08 | 97 | 1011.7 |
| 20260509123703 | 72 | 298 | 0.0 | 1.0 | 0.00 | 0.10 | 0.08 | 97 | 1011.4 |
| 20260509123202 | 71 | 315 | 0.0 | 2.0 | 0.01 | 0.10 | 0.08 | 97 | 1011.4 |
| 20260509123050 | 71 | 0 | 0.0 | 3.0 | 0.01 | 0.10 | 0.08 | 97 | 1011.7 |
| 20260509122703 | 71 | 315 | 0.0 | 2.0 | 0.02 | 0.10 | 0.08 | 97 | 1011.2 |
| 20260509122203 | 71 | 321 | 0.0 | 1.0 | 0.05 | 0.10 | 0.08 | 97 | 1011.2 |
| 20260509121702 | 71 | 274 | 0.0 | 3.0 | 0.07 | 0.10 | 0.08 | 97 | 1011.1 |
| 20260509121556 | 70 | 0 | 0.0 | 3.0 | 0.07 | 0.10 | 0.08 | 96 | 1011.4 |
| 20260509121200 | 71 | 274 | 0.0 | 3.0 | 0.07 | 0.10 | 0.08 | 97 | 1011.0 |
| 20260509120701 | 71 | 156 | 0.0 | 5.0 | 0.08 | 0.10 | 0.08 | 97 | 1010.9 |
| 20260509120422 | 71 | 219 | 0.0 | 5.0 | 0.08 | 0.10 | 0.08 | 97 | 1010.9 |
| 20260509120049 | 70 | 0 | 0.0 | 5.0 | 0.08 | 0.10 | 0.08 | 96 | 1011.2 |
| 20260509115701 | 71 | 126 | 0.0 | 4.0 | 0.08 | 0.02 | 0.08 | 97 | 1011.0 |
| 20260509115201 | 71 | 109 | 0.0 | 4.0 | 0.08 | 0.02 | 0.08 | 96 | 1011.1 |
| 20260509114701 | 71 | 58 | 0.0 | 4.0 | 0.08 | 0.02 | 0.08 | 96 | 1011.2 |
| 20260509114559 | 70 | 0 | 0.0 | 5.0 | 0.08 | 0.13 | 0.08 | 96 | 1011.5 |
| 20260509114156 | 71 | 96 | 1.0 | 4.0 | 0.08 | 0.02 | 0.08 | 96 | 1011.3 |
| 20260509113649 | 71 | 212 | 0.0 | 4.0 | 0.08 | 0.02 | 0.08 | 95 | 1011.2 |
| 20260509113417 | 72 | 350 | 0.0 | 4.0 | 0.07 | 0.02 | 0.07 | 94 | 1011.0 |
| 20260509113047 | 72 | 348 | 0.0 | 2.0 | 0.07 | 0.12 | 0.07 | 94 | 1011.2 |
| 20260509112649 | 74 | 274 | 0.0 | 2.0 | 0.06 | 0.02 | 0.06 | 94 | 1011.1 |
| 20260509112148 | 75 | 310 | 0.0 | 2.0 | 0.03 | 0.02 | 0.03 | 96 | 1010.9 |
| 20260509111904 | 75 | 84 | 0.0 | 2.0 | 0.01 | 0.02 | 0.01 | 96 | 1010.8 |
| 20260509111549 | 75 | 288 | 0.0 | 1.0 | 0.01 | 0.06 | 0.01 | 96 | 1011.1 |
| 20260509111135 | 75 | 211 | 0.0 | 2.0 | 0.01 | 0.03 | 0.01 | 97 | 1010.9 |
| 20260509110631 | 75 | 135 | 0.0 | 0.0 | 0.00 | 0.04 | 0.00 | 97 | 1010.8 |
| 20260509110357 | 75 | 135 | 0.0 | 0.0 | 0.00 | 0.05 | 0.00 | 97 | 1010.7 |
| 20260509110052 | 75 | 0 | 0.0 | 0.0 | 0.00 | 0.05 | 0.00 | 96 | 1010.9 |
| 20260509105631 | 75 | 135 | 0.0 | 0.0 | 0.00 | 0.06 | 0.00 | 97 | 1010.5 |
| 20260509105131 | 76 | 135 | 0.0 | 0.0 | 0.00 | 0.06 | 0.00 | 97 | 1010.3 |
| 20260509104631 | 76 | 135 | 0.0 | 0.0 | 0.00 | 0.06 | 0.00 | 97 | 1010.2 |
| 20260509104549 | 75 | 0 | 0.0 | 0.0 | 0.00 | 0.09 | 0.00 | 96 | 1010.4 |
| 20260509104130 | 76 | 135 | 0.0 | 0.0 | 0.00 | 0.06 | 0.00 | 97 | 1010.0 |
| 20260509103630 | 75 | 135 | 0.0 | 0.0 | 0.00 | 0.06 | 0.00 | 97 | 1009.8 |
| 20260509103131 | 75 | 135 | 0.0 | 0.0 | 0.00 | 0.06 | 0.00 | 97 | 1009.5 |
| 20260509103050 | 75 | 0 | 0.0 | 0.0 | 0.00 | 0.09 | 0.00 | 96 | 1009.7 |
| 20260509102643 | 75 | 135 | 0.0 | 0.0 | 0.00 | 0.06 | 0.00 | 97 | 1009.3 |
| 20260509102143 | 75 | 135 | 0.0 | 0.0 | 0.00 | 0.07 | 0.00 | 97 | 1009.3 |
| 20260509101630 | 75 | 135 | 0.0 | 0.0 | 0.00 | 0.07 | 0.00 | 97 | 1009.1 |
| 20260509101548 | 75 | 0 | 0.0 | 0.0 | 0.00 | 0.09 | 0.00 | 96 | 1009.3 |
| 20260509101130 | 75 | 135 | 0.0 | 0.0 | 0.00 | 0.08 | 0.00 | 97 | 1008.8 |
| 20260509100628 | 75 | 135 | 0.0 | 0.0 | 0.00 | 0.08 | 0.00 | 97 | 1008.9 |
| 20260509100129 | 75 | 135 | 0.0 | 0.0 | 0.00 | 0.09 | 0.00 | 97 | 1008.8 |
| 20260509100046 | 75 | 0 | 0.0 | 0.0 | 0.00 | 0.09 | 0.00 | 96 | 1009.0 |
| 20260509095629 | 75 | 135 | 0.0 | 0.0 | 0.00 | 0.10 | 0.00 | 97 | 1008.7 |
| 20260509095129 | 75 | 135 | 0.0 | 0.0 | 0.00 | 0.11 | 0.00 | 97 | 1008.4 |
| 20260509094629 | 75 | 135 | 0.0 | 0.0 | 0.00 | 0.11 | 0.00 | 97 | 1008.6 |
| 20260509094548 | 75 | 0 | 0.0 | 0.0 | 0.00 | 0.11 | 0.00 | 96 | 1008.9 |
| 20260509094128 | 75 | 135 | 0.0 | 0.0 | 0.00 | 0.11 | 0.00 | 97 | 1008.5 |
| 20260509093628 | 75 | 135 | 0.0 | 0.0 | 0.00 | 0.11 | 0.00 | 96 | 1008.7 |
| 20260509093131 | 75 | 135 | 0.0 | 0.0 | 0.00 | 0.11 | 0.00 | 96 | 1008.7 |
| 20260509093050 | 75 | 0 | 0.0 | 0.0 | 0.00 | 0.11 | 0.00 | 96 | 1009.0 |
| 20260509092630 | 75 | 135 | 0.0 | 0.0 | 0.00 | 0.11 | 0.00 | 96 | 1008.6 |
| 20260509092144 | 75 | 135 | 0.0 | 0.0 | 0.00 | 0.11 | 0.00 | 96 | 1008.6 |
| 20260509091631 | 75 | 135 | 0.0 | 0.0 | 0.00 | 0.11 | 0.00 | 96 | 1008.6 |
| 20260509091555 | 75 | 0 | 0.0 | 0.0 | 0.00 | 0.11 | 0.00 | 96 | 1008.9 |
| 20260509091130 | 75 | 135 | 0.0 | 0.0 | 0.00 | 0.11 | 0.00 | 96 | 1008.7 |
| 20260509090628 | 75 | 135 | 0.0 | 0.0 | 0.00 | 0.11 | 0.00 | 96 | 1008.6 |
| 20260509090130 | 75 | 135 | 0.0 | 0.0 | 0.00 | 0.11 | 0.00 | 97 | 1008.6 |
| 20260509090101 | 75 | 0 | 0.0 | 0.0 | 0.00 | 0.11 | 0.00 | 96 | 1008.9 |
| 20260509085630 | 75 | 135 | 0.0 | 0.0 | 0.00 | 0.11 | 0.00 | 97 | 1008.7 |
| 20260509085129 | 75 | 135 | 0.0 | 0.0 | 0.00 | 0.11 | 0.00 | 97 | 1008.6 |
| 20260509084629 | 75 | 135 | 0.0 | 0.0 | 0.00 | 0.11 | 0.00 | 97 | 1008.6 |
| 20260509084553 | 75 | 0 | 0.0 | 0.0 | 0.00 | 0.11 | 0.00 | 96 | 1008.9 |
| 20260509084129 | 75 | 159 | 0.0 | 0.0 | 0.00 | 0.11 | 0.00 | 96 | 1008.4 |
| 20260509083628 | 75 | 159 | 0.0 | 2.0 | 0.00 | 0.11 | 0.00 | 96 | 1008.3 |
| 20260509083131 | 75 | 159 | 0.0 | 2.0 | 0.00 | 0.11 | 0.00 | 96 | 1008.4 |
| 20260509083054 | 75 | 0 | 0.0 | 2.0 | 0.00 | 0.11 | 0.00 | 96 | 1008.8 |
| 20260509082630 | 75 | 299 | 0.0 | 0.0 | 0.00 | 0.11 | 0.00 | 96 | 1008.3 |
| 20260509082354 | 75 | 299 | 0.0 | 1.0 | 0.00 | 0.11 | 0.00 | 96 | 1008.2 |
| 20260509081614 | 75 | 275 | 0.0 | 5.0 | 0.00 | 0.11 | 0.00 | 96 | 1008.2 |
| 20260509081556 | 75 | 275 | 0.0 | 5.0 | 0.00 | 0.11 | 0.00 | 96 | 1008.4 |
| 20260509081547 | 75 | 0 | 0.0 | 5.0 | 0.00 | 0.11 | 0.00 | 96 | 1008.5 |
| 20260509080607 | 76 | 93 | 0.0 | 0.0 | 0.00 | 0.11 | 0.00 | 96 | 1008.3 |
| 20260509080105 | 75 | 176 | 0.0 | 1.0 | 0.00 | 0.11 | 0.00 | 96 | 1008.4 |
| 20260509075607 | 75 | 176 | 0.0 | 1.0 | 0.00 | 0.11 | 0.00 | 96 | 1008.8 |
| 20260509075106 | 75 | 254 | 0.0 | 0.0 | 0.00 | 0.11 | 0.00 | 96 | 1008.9 |
| 20260509074607 | 75 | 254 | 0.0 | 0.0 | 0.00 | 0.11 | 0.00 | 96 | 1009.0 |
| 20260509074551 | 75 | 0 | 0.0 | 0.0 | 0.00 | 0.11 | 0.00 | 96 | 1009.3 |
| 20260509074046 | 75 | 254 | 0.0 | 0.0 | 0.00 | 0.11 | 0.00 | 96 | 1009.3 |
| 20260509073810 | 75 | 254 | 0.0 | 1.0 | 0.00 | 0.11 | 0.00 | 97 | 1009.3 |
| 20260509073102 | 75 | 0 | 0.0 | 0.0 | 0.00 | 0.11 | 0.00 | 96 | 1009.4 |
| 20260509073046 | 75 | 254 | 0.0 | 1.0 | 0.00 | 0.11 | 0.00 | 96 | 1009.1 |
| 20260509072543 | 75 | 52 | 0.0 | 0.0 | 0.00 | 0.11 | 0.00 | 96 | 1009.4 |
| 20260509072044 | 75 | 52 | 0.0 | 0.0 | 0.00 | 0.11 | 0.00 | 96 | 1009.7 |
| 20260509071808 | 75 | 52 | 0.0 | 0.0 | 0.00 | 0.11 | 0.00 | 96 | 1009.5 |
| 20260509071551 | 75 | 0 | 0.0 | 0.0 | 0.00 | 0.11 | 0.00 | 96 | 1009.8 |
| 20260509071034 | 75 | 52 | 0.0 | 1.0 | 0.00 | 0.11 | 0.00 | 96 | 1009.5 |
| 20260509070532 | 75 | 52 | 0.0 | 1.0 | 0.00 | 0.11 | 0.00 | 96 | 1009.6 |
| 20260509070055 | 75 | 0 | 0.0 | 2.0 | 0.00 | 0.11 | 0.00 | 96 | 1009.8 |
| 20260509070031 | 75 | 339 | 0.0 | 1.0 | 0.00 | 0.11 | 0.00 | 96 | 1009.5 |
| 20260509065521 | 75 | 167 | 0.0 | 4.0 | 0.00 | 0.11 | 0.00 | 96 | 1009.5 |
| 20260509065007 | 75 | 167 | 0.0 | 4.0 | 0.00 | 0.11 | 0.00 | 96 | 1009.3 |
| 20260509064548 | 75 | 0 | 0.0 | 2.0 | 0.00 | 0.17 | 0.00 | 96 | 1009.6 |
| 20260509064506 | 75 | 99 | 0.0 | 1.0 | 0.00 | 0.11 | 0.00 | 96 | 1009.2 |
| 20260509064005 | 75 | 316 | 0.0 | 0.0 | 0.00 | 0.11 | 0.00 | 96 | 1009.3 |
| 20260509063504 | 75 | 316 | 0.0 | 0.0 | 0.00 | 0.11 | 0.00 | 96 | 1009.6 |
| 20260509063050 | 75 | 0 | 0.0 | 2.0 | 0.00 | 0.17 | 0.00 | 96 | 1009.8 |
| 20260509063003 | 75 | 316 | 0.0 | 2.0 | 0.00 | 0.11 | 0.00 | 96 | 1009.6 |
| 20260509062502 | 75 | 316 | 0.0 | 2.0 | 0.00 | 0.12 | 0.00 | 96 | 1009.1 |
| 20260509062227 | 75 | 269 | 0.0 | 1.0 | 0.00 | 0.13 | 0.00 | 96 | 1008.9 |
| 20260509061546 | 75 | 235 | 0.0 | 2.0 | 0.00 | 0.17 | 0.00 | 96 | 1009.2 |
| 20260509061500 | 75 | 25 | 0.0 | 1.0 | 0.00 | 0.13 | 0.00 | 96 | 1008.9 |
| 20260509061001 | 75 | 334 | 0.0 | 1.0 | 0.00 | 0.14 | 0.00 | 96 | 1009.2 |
| 20260509060459 | 75 | 149 | 0.0 | 0.0 | 0.00 | 0.16 | 0.00 | 96 | 1009.4 |
| 20260509060054 | 75 | 0 | 0.0 | 0.0 | 0.00 | 0.17 | 0.00 | 95 | 1009.7 |
| 20260509055942 | 75 | 149 | 0.0 | 0.0 | 0.00 | 0.17 | 0.00 | 96 | 1009.5 |
| 20260509055434 | 75 | 149 | 0.0 | 0.0 | 0.00 | 0.18 | 0.00 | 96 | 1009.4 |
| 20260509054934 | 75 | 149 | 0.0 | 0.0 | 0.01 | 0.19 | 0.00 | 96 | 1009.4 |
| 20260509054553 | 75 | 0 | 0.0 | 0.0 | 0.01 | 0.21 | 0.00 | 95 | 1009.6 |
| 20260509054434 | 75 | 149 | 0.0 | 0.0 | 0.01 | 0.19 | 0.00 | 96 | 1009.3 |
| 20260509053933 | 75 | 149 | 0.0 | 1.0 | 0.02 | 0.19 | 0.00 | 96 | 1009.3 |
| 20260509053432 | 76 | 149 | 0.0 | 1.0 | 0.02 | 0.19 | 0.00 | 95 | 1009.5 |
| 20260509053048 | 75 | 0 | 0.0 | 0.0 | 0.02 | 0.21 | 0.00 | 95 | 1009.9 |
| 20260509052931 | 76 | 37 | 0.0 | 0.0 | 0.02 | 0.20 | 0.00 | 95 | 1009.7 |
| 20260509052430 | 76 | 37 | 0.0 | 4.0 | 0.02 | 0.20 | 0.00 | 95 | 1009.8 |
| 20260509051930 | 76 | 37 | 0.0 | 4.0 | 0.02 | 0.20 | 0.00 | 95 | 1009.6 |
| 20260509051547 | 75 | 0 | 0.0 | 6.0 | 0.02 | 0.21 | 0.00 | 94 | 1009.9 |
| 20260509051429 | 76 | 30 | 0.0 | 6.0 | 0.02 | 0.20 | 0.00 | 95 | 1009.6 |
| 20260509050929 | 76 | 307 | 1.0 | 6.0 | 0.02 | 0.21 | 0.00 | 94 | 1009.3 |
| 20260509050429 | 76 | 352 | 1.0 | 4.0 | 0.02 | 0.21 | 0.00 | 94 | 1009.6 |
| 20260509050057 | 76 | 0 | 0.0 | 0.0 | 0.02 | 0.21 | 0.00 | 93 | 1010.5 |
| 20260509045928 | 76 | 44 | 0.0 | 0.0 | 0.02 | 0.19 | 0.21 | 93 | 1010.3 |
| 20260509045430 | 77 | 44 | 0.0 | 1.0 | 0.02 | 0.19 | 0.21 | 90 | 1010.7 |
| 20260509044931 | 78 | 44 | 0.0 | 1.0 | 0.01 | 0.19 | 0.20 | 89 | 1010.7 |
| 20260509044550 | 78 | 0 | 0.0 | 4.0 | 0.01 | 0.21 | 0.20 | 87 | 1010.7 |
| 20260509044430 | 78 | 264 | 0.0 | 0.0 | 0.01 | 0.19 | 0.20 | 87 | 1010.4 |
| 20260509043930 | 79 | 264 | 0.0 | 5.0 | 0.00 | 0.19 | 0.19 | 86 | 1010.4 |
| 20260509043429 | 79 | 264 | 1.0 | 5.0 | 0.00 | 0.19 | 0.19 | 85 | 1010.3 |
| 20260509043049 | 78 | 0 | 0.0 | 0.0 | 0.00 | 0.20 | 0.19 | 85 | 1010.6 |
| 20260509042929 | 79 | 61 | 0.0 | 0.0 | 0.00 | 0.19 | 0.19 | 85 | 1010.5 |
| 20260509042650 | 79 | 61 | 0.0 | 3.0 | 0.00 | 0.19 | 0.19 | 85 | 1010.5 |
| 20260509041929 | 79 | 274 | 0.0 | 3.0 | 0.00 | 0.19 | 0.19 | 85 | 1010.5 |
| 20260509041720 | 79 | 45 | 0.0 | 3.0 | 0.00 | 0.19 | 0.19 | 85 | 1010.4 |
| 20260509041552 | 79 | 0 | 0.0 | 4.0 | 0.00 | 0.20 | 0.19 | 84 | 1010.8 |
| 20260509040929 | 80 | 193 | 0.0 | 3.0 | 0.00 | 0.19 | 0.19 | 84 | 1010.0 |
| 20260509040429 | 80 | 187 | 0.0 | 1.0 | 0.00 | 0.19 | 0.19 | 84 | 1009.8 |
| 20260509040051 | 80 | 0 | 0.0 | 6.0 | 0.00 | 0.20 | 0.19 | 83 | 1010.1 |
| 20260509035928 | 80 | 357 | 0.0 | 5.0 | 0.00 | 0.20 | 0.19 | 83 | 1009.8 |
| 20260509035429 | 80 | 47 | 1.0 | 5.0 | 0.00 | 0.20 | 0.19 | 83 | 1009.5 |
| 20260509034929 | 80 | 221 | 0.0 | 5.0 | 0.00 | 0.20 | 0.19 | 83 | 1009.5 |
| 20260509034547 | 80 | 0 | 1.0 | 6.0 | 0.00 | 0.20 | 0.19 | 82 | 1009.8 |
| 20260509034429 | 80 | 143 | 1.0 | 5.0 | 0.00 | 0.20 | 0.19 | 82 | 1009.6 |
| 20260509033929 | 81 | 150 | 0.0 | 5.0 | 0.00 | 0.20 | 0.19 | 82 | 1009.7 |
| 20260509033429 | 81 | 347 | 0.0 | 5.0 | 0.00 | 0.20 | 0.19 | 82 | 1009.6 |
| 20260509033105 | 81 | 0 | 0.0 | 6.0 | 0.00 | 0.20 | 0.19 | 81 | 1010.0 |
| 20260509032928 | 81 | 341 | 0.0 | 3.0 | 0.00 | 0.20 | 0.19 | 81 | 1009.7 |
| 20260509032431 | 81 | 278 | 0.0 | 5.0 | 0.00 | 0.20 | 0.19 | 81 | 1009.3 |
| 20260509032155 | 81 | 199 | 0.0 | 5.0 | 0.00 | 0.20 | 0.19 | 81 | 1009.0 |
| 20260509031547 | 81 | 179 | 0.0 | 6.0 | 0.00 | 0.20 | 0.19 | 80 | 1009.1 |
| 20260509031430 | 82 | 96 | 0.0 | 7.0 | 0.00 | 0.20 | 0.19 | 80 | 1008.7 |
| 20260509031223 | 82 | 354 | 2.0 | 7.0 | 0.00 | 0.20 | 0.19 | 80 | 1008.7 |
| 20260509030650 | 82 | 142 | 2.0 | 5.0 | 0.00 | 0.20 | 0.19 | 80 | 1008.7 |
| 20260509030053 | 82 | 146 | 0.0 | 5.0 | 0.00 | 0.20 | 0.19 | 79 | 1009.0 |
| 20260509025928 | 82 | 257 | 0.0 | 3.0 | 0.00 | 0.20 | 0.19 | 80 | 1008.8 |
| 20260509025429 | 82 | 323 | 0.0 | 3.0 | 0.00 | 0.20 | 0.19 | 79 | 1008.8 |
| 20260509024929 | 83 | 328 | 0.0 | 5.0 | 0.00 | 0.20 | 0.19 | 79 | 1008.7 |
| 20260509024557 | 82 | 301 | 0.0 | 7.0 | 0.00 | 0.20 | 0.19 | 78 | 1008.9 |
| 20260509024445 | 83 | 110 | 0.0 | 7.0 | 0.00 | 0.20 | 0.19 | 78 | 1008.8 |
| 20260509024436 | 83 | 262 | 0.0 | 7.0 | 0.00 | 0.20 | 0.19 | 78 | 1008.8 |
| 20260509023429 | 83 | 154 | 0.0 | 4.0 | 0.00 | 0.20 | 0.19 | 78 | 1008.7 |
| 20260509023154 | 83 | 112 | 1.0 | 4.0 | 0.00 | 0.20 | 0.19 | 77 | 1008.7 |
| 20260509023051 | 83 | 0 | 0.0 | 4.0 | 0.00 | 0.20 | 0.19 | 77 | 1009.0 |
| 20260509022431 | 84 | 176 | 0.0 | 3.0 | 0.00 | 0.20 | 0.19 | 77 | 1008.6 |
| 20260509021931 | 84 | 356 | 0.0 | 0.0 | 0.00 | 0.20 | 0.19 | 77 | 1008.6 |
| 20260509021548 | 84 | 0 | 0.0 | 1.0 | 0.00 | 0.20 | 0.19 | 76 | 1008.8 |
| 20260509021431 | 84 | 252 | 0.0 | 1.0 | 0.00 | 0.20 | 0.19 | 76 | 1008.6 |
| 20260509020931 | 84 | 252 | 0.0 | 1.0 | 0.00 | 0.20 | 0.19 | 76 | 1008.3 |
| 20260509020720 | 85 | 237 | 0.0 | 6.0 | 0.00 | 0.20 | 0.19 | 75 | 1008.3 |
| 20260509020047 | 84 | 0 | 0.0 | 6.0 | 0.00 | 0.20 | 0.19 | 75 | 1008.7 |
| 20260509015930 | 85 | 248 | 1.0 | 6.0 | 0.00 | 0.20 | 0.19 | 75 | 1008.4 |
| 20260509015656 | 85 | 356 | 1.0 | 7.0 | 0.00 | 0.20 | 0.19 | 75 | 1008.5 |
| 20260509014928 | 85 | 34 | 2.0 | 7.0 | 0.00 | 0.20 | 0.19 | 74 | 1008.4 |
| 20260509014650 | 85 | 182 | 0.0 | 5.0 | 0.00 | 0.20 | 0.19 | 74 | 1008.1 |
| 20260509014550 | 85 | 278 | 0.0 | 4.0 | 0.00 | 0.20 | 0.19 | 74 | 1008.4 |
| 20260509013922 | 86 | 41 | 0.0 | 4.0 | 0.00 | 0.20 | 0.19 | 75 | 1007.7 |
| 20260509013710 | 86 | 26 | 0.0 | 5.0 | 0.00 | 0.20 | 0.19 | 74 | 1007.7 |
| 20260509013055 | 85 | 0 | 0.0 | 7.0 | 0.00 | 0.20 | 0.19 | 74 | 1008.0 |
| 20260509012913 | 86 | 104 | 1.0 | 8.0 | 0.00 | 0.20 | 0.19 | 74 | 1007.6 |
| 20260509012638 | 86 | 66 | 0.0 | 8.0 | 0.00 | 0.20 | 0.19 | 74 | 1007.5 |
| 20260509011913 | 86 | 277 | 0.0 | 7.0 | 0.00 | 0.20 | 0.19 | 74 | 1007.4 |
| 20260509011601 | 85 | 0 | 0.0 | 7.0 | 0.00 | 0.20 | 0.19 | 74 | 1007.6 |
| 20260509011411 | 86 | 41 | 1.0 | 7.0 | 0.00 | 0.20 | 0.19 | 74 | 1007.4 |
| 20260509010911 | 86 | 215 | 1.0 | 6.0 | 0.00 | 0.20 | 0.19 | 74 | 1007.1 |
| 20260509010409 | 86 | 250 | 1.0 | 6.0 | 0.00 | 0.20 | 0.19 | 75 | 1007.0 |
| 20260509010047 | 86 | 0 | 0.0 | 6.0 | 0.00 | 0.20 | 0.19 | 74 | 1007.2 |
| 20260509005905 | 86 | 191 | 1.0 | 5.0 | 0.00 | 0.20 | 0.19 | 75 | 1006.9 |
| 20260509005401 | 86 | 288 | 0.0 | 5.0 | 0.00 | 0.20 | 0.19 | 75 | 1006.8 |
| 20260509005124 | 86 | 334 | 0.0 | 5.0 | 0.00 | 0.20 | 0.19 | 75 | 1006.9 |
| 20260509004555 | 86 | 324 | 1.0 | 5.0 | 0.00 | 0.20 | 0.19 | 75 | 1007.3 |
| 20260509004401 | 86 | 285 | 1.0 | 5.0 | 0.00 | 0.20 | 0.19 | 76 | 1007.2 |
| 20260509003901 | 87 | 293 | 0.0 | 3.0 | 0.00 | 0.20 | 0.19 | 77 | 1007.3 |
| 20260509003402 | 87 | 233 | 0.0 | 3.0 | 0.00 | 0.20 | 0.19 | 77 | 1007.3 |
| 20260509003150 | 87 | 131 | 0.0 | 5.0 | 0.00 | 0.20 | 0.19 | 77 | 1007.1 |
| 20260509003051 | 86 | 0 | 0.0 | 6.0 | 0.00 | 0.20 | 0.19 | 76 | 1007.5 |
| 20260509002401 | 87 | 131 | 0.0 | 5.0 | 0.00 | 0.20 | 0.19 | 76 | 1007.0 |
| 20260509002124 | 87 | 337 | 0.0 | 5.0 | 0.00 | 0.20 | 0.19 | 75 | 1007.3 |
| 20260509001553 | 87 | 273 | 0.0 | 5.0 | 0.00 | 0.20 | 0.19 | 74 | 1007.5 |
| 20260509001402 | 87 | 149 | 1.0 | 5.0 | 0.00 | 0.20 | 0.19 | 74 | 1007.2 |
| 20260509000902 | 88 | 221 | 0.0 | 4.0 | 0.00 | 0.20 | 0.19 | 73 | 1007.0 |
| 20260509000627 | 88 | 341 | 0.0 | 4.0 | 0.00 | 0.20 | 0.19 | 74 | 1007.1 |
| 20260509000050 | 87 | 0 | 0.0 | 4.0 | 0.00 | 0.20 | 0.19 | 73 | 1007.3 |
| 20260508235902 | 87 | 336 | 0.0 | 4.0 | 0.00 | 0.20 | 0.19 | 73 | 1007.0 |
| 20260508235402 | 88 | 305 | 0.0 | 1.0 | 0.00 | 0.20 | 0.19 | 73 | 1007.0 |
| 20260508234903 | 88 | 217 | 0.0 | 2.0 | 0.00 | 0.20 | 0.19 | 73 | 1007.1 |
| 20260508234547 | 88 | 0 | 0.0 | 2.0 | 0.00 | 0.20 | 0.19 | 72 | 1007.4 |
| 20260508234402 | 88 | 125 | 0.0 | 2.0 | 0.00 | 0.20 | 0.19 | 72 | 1007.1 |
| 20260508233903 | 88 | 142 | 0.0 | 0.0 | 0.00 | 0.20 | 0.19 | 72 | 1007.2 |
| 20260508233403 | 88 | 142 | 0.0 | 0.0 | 0.00 | 0.20 | 0.19 | 72 | 1007.3 |
| 20260508233049 | 87 | 0 | 0.0 | 0.0 | 0.00 | 0.20 | 0.19 | 71 | 1007.6 |
| 20260508232900 | 88 | 142 | 0.0 | 1.0 | 0.00 | 0.20 | 0.19 | 72 | 1007.3 |
| 20260508232400 | 88 | 142 | 0.0 | 1.0 | 0.00 | 0.20 | 0.19 | 72 | 1007.4 |
| 20260508231901 | 88 | 303 | 0.0 | 1.0 | 0.00 | 0.20 | 0.19 | 72 | 1007.4 |
| 20260508231631 | 88 | 328 | 0.0 | 1.0 | 0.00 | 0.20 | 0.19 | 72 | 1007.3 |
| 20260508231553 | 87 | 0 | 0.0 | 1.0 | 0.00 | 0.20 | 0.19 | 72 | 1007.5 |
| 20260508231126 | 87 | 302 | 0.0 | 1.0 | 0.00 | 0.20 | 0.19 | 72 | 1007.3 |
| 20260508230624 | 87 | 302 | 0.0 | 1.0 | 0.00 | 0.20 | 0.19 | 72 | 1007.3 |
| 20260508230050 | 87 | 0 | 0.0 | 1.0 | 0.00 | 0.20 | 0.19 | 72 | 1007.6 |
| 20260508225901 | 87 | 6 | 0.0 | 1.0 | 0.00 | 0.20 | 0.19 | 73 | 1007.3 |
| 20260508225401 | 87 | 95 | 0.0 | 2.0 | 0.00 | 0.20 | 0.19 | 73 | 1007.2 |
| 20260508224901 | 88 | 354 | 0.0 | 2.0 | 0.00 | 0.20 | 0.19 | 72 | 1007.2 |
| 20260508224609 | 87 | 314 | 0.0 | 0.0 | 0.00 | 0.20 | 0.19 | 72 | 1007.4 |
| 20260508224401 | 88 | 32 | 0.0 | 1.0 | 0.00 | 0.20 | 0.19 | 72 | 1007.3 |
| 20260508223901 | 88 | 252 | 0.0 | 1.0 | 0.00 | 0.20 | 0.19 | 72 | 1007.3 |
| 20260508223401 | 88 | 252 | 0.0 | 4.0 | 0.00 | 0.20 | 0.19 | 72 | 1007.3 |
| 20260508223127 | 88 | 8 | 0.0 | 4.0 | 0.00 | 0.20 | 0.19 | 71 | 1007.3 |
| 20260508223052 | 87 | 0 | 0.0 | 4.0 | 0.00 | 0.20 | 0.19 | 71 | 1007.5 |
| 20260508222400 | 88 | 26 | 0.0 | 4.0 | 0.00 | 0.20 | 0.19 | 72 | 1007.6 |
| 20260508221902 | 88 | 259 | 0.0 | 3.0 | 0.00 | 0.20 | 0.19 | 72 | 1007.5 |
| 20260508221602 | 87 | 0 | 0.0 | 2.0 | 0.00 | 0.20 | 0.19 | 71 | 1008.0 |
| 20260508221415 | 88 | 176 | 0.0 | 3.0 | 0.00 | 0.20 | 0.19 | 72 | 1007.6 |
| 20260508220902 | 88 | 96 | 0.0 | 1.0 | 0.00 | 0.20 | 0.19 | 71 | 1007.6 |
| 20260508220402 | 88 | 199 | 0.0 | 1.0 | 0.00 | 0.20 | 0.19 | 71 | 1007.8 |
| 20260508220049 | 87 | 0 | 0.0 | 1.0 | 0.00 | 0.20 | 0.19 | 71 | 1007.9 |
| 20260508215901 | 88 | 56 | 0.0 | 1.0 | 0.00 | 0.20 | 0.19 | 71 | 1007.7 |
| 20260508215400 | 88 | 56 | 0.0 | 1.0 | 0.00 | 0.20 | 0.19 | 70 | 1007.8 |